SCP
0 0 0 0 0 0 0 0 0 0 0 0 0 0 0 0 0 0 0 0 0 1 1 1 1 1 1 1 1 2 2 1 1 1 1 1 1 1 1 1 1 1 1
0 0 0 0 0 0 0 0 0 0 0 0 0 0 0 0 0 0 0 0 0 0 1 1 1 0 1 1 1 1 1 1 1 1 1 1 1 1 1 1 1 1 1
0 0 0 0 0 0 0 0 0 0 0 0 0 0 0 0 0 0 0 0 0 0 1 1 1 0 1 1 1 1 1 1 1 1 1 1 1 2 2 2 2 2 1
0 0 0 0 0 0 0 0 0 0 0 0 0 0 0 0 0 0 0 0 0 0 0 0 0 0 1 1 1 1 1 1 1 1 1 1 1 1 2 2 2 2 2
0 0 0 0 0 0 0 0 0 0 0 0 0 0 0 0 0 0 0 0 0 0 0 0 0 0 0 1 1 1 1 1 1 1 1 1 1 1 1 1 2 1 1
0 0 0 0 0 0 0 0 0 0 0 0 0 0 0 0 0 0 0 0 0 0 0 0 0 0 0 0 0 1 1 1 1 1 1 1 1 1 1 1 1 1 1
0 0 0 0 0 0 0 0 0 0 0 0 0 0 0 0 0 0 0 0 0 0 0 0 0 0 0 0 0 1 1 1 1 1 1 1 1 1 1 1 1 1 1
0 0 0 0 0 0 0 0 0 0 0 0 0 0 0 0 0 0 0 0 0 0 0 0 0 0 0 0 0 0 1 1 2 2 1 1 1 1 1 1 1 1 1
0 0 0 0 0 0 0 0 0 0 0 0 0 0 0 0 0 0 0 0 0 0 0 0 0 0 0 0 0 0 0 1 2 3 3 2 1 1 1 1 1 1 1
0 0 0 0 0 0 0 0 0 0 0 0 0 0 0 0 0 0 0 0 0 0 0 0 0 0 0 0 0 0 0 0 1 2 2 2 2 1 1 1 1 1 1
0 0 0 0 0 0 0 0 0 0 0 0 0 0 0 0 0 0 0 0 0 0 0 0 0 0 0 0 0 0 0 0 0 0 1 1 2 2 1 1 1 1 1
0 0 0 0 0 0 0 0 0 0 0 0 0 0 0 0 0 0 0 0 0 0 0 0 0 0 0 0 0 0 0 0 0 0 0 1 1 1 1 1 1 1 1
1 0 0 0 0 0 1 1 1 0 0 0 0 0 0 0 0 0 0 0 0 0 0 0 0 0 0 0 0 0 0 0 0 0 0 0 0 1 1 1 1 1 1
1 1 0 0 0 0 1 1 1 1 0 0 0 0 0 0 0 0 0 0 0 0 0 0 0 0 0 0 0 0 0 0 0 0 0 0 0 0 1 1 1 1 1
0 0 0 0 0 1 1 1 1 1 1 0 0 0 0 0 0 0 0 0 0 0 0 0 0 0 0 0 0 0 0 0 0 0 0 0 0 0 0 0 1 1 1
0 0 0 0 1 1 1 1 1 1 1 1 0 0 0 0 0 0 0 0 0 0 0 0 0 0 0 0 0 0 0 0 0 0 0 0 0 0 0 0 0 1 1
1 1 0 0 0 1 1 1 1 1 1 1 0 0 0 0 0 0 0 0 0 0 0 0 0 0 0 0 0 0 0 0 0 0 0 0 0 0 0 0 0 0 0
0 0 0 0 0 0 1 1 1 1 1 0 0 0 0 0 0 0 0 0 0 0 0 0 0 0 0 1 1 1 1 1 0 0 0 0 0 0 0 0 0 0 0
0 0 0 0 0 0 0 1 1 1 0 0 0 0 0 0 0 0 0 0 0 0 0 0 0 1 1 1 1 1 1 1 1 0 0 0 0 0 0 0 0 0 0
0 0 0 0 0 1 1 1 1 0 0 0 0 0 0 0 0 0 0 0 0 0 0 0 0 0 1 1 1 1 1 1 1 1 1 0 0 0 0 0 0 0 0
0 0 0 0 0 1 1 0 0 0 0 0 0 0 0 0 0 0 0 0 0 0 0 0 0 0 0 0 1 1 1 1 1 1 1 1 1 0 0 0 0 0 0
0 0 0 0 0 0 0 0 0 0 0 0 0 0 0 0 0 0 0 0 0 0 0 0 0 0 0 0 1 1 1 1 1 1 1 1 1 1 1 1 0 0 0
0 0 0 0 0 0 0 0 0 0 0 0 0 0 0 0 0 0 0 0 0 0 0 0 0 0 0 0 0 1 1 1 1 1 1 1 1 1 1 1 0 0 0
1 1 1 1 0 0 0 0 0 0 0 0 0 0 0 0 0 0 0 0 0 0 0 0 0 0 0 0 0 1 1 1 1 1 1 1 1 1 1 1 0 0 0
1 1 1 1 1 0 0 0 0 0 0 1 0 0 0 0 0 0 0 0 1 0 0 0 0 0 0 0 0 0 0 1 1 1 1 1 1 1 1 1 0 0 0
1 1 1 1 0 0 0 0 0 0 0 1 1 1 0 0 0 0 0 0 1 1 0 0 0 0 0 0 0 0 0 0 0 1 1 1 1 1 0 0 0 0 0
Wind_Speed
3 3 3 3 3 3 3 3 4 6 5 6 6 7 7 7 7 6 5 12 13 12 12 11 11 10 10 9 9 10 10 10 10 10 10 10 9 9 9 9 9 8 7
3 3 3 3 3 3 3 3 4 4 4 5 6 7 7 6 6 6 5 7 11 12 12 11 11 10 10 11 10 10 10 10 10 10 9 9 9 9 9 9 8 8 7
3 2 3 3 3 3 4 3 5 4 4 4 5 6 5 6 5 6 6 4 6 10 13 12 12 11 11 11 10 10 10 10 10 9 9 9 9 9 8 8 8 9 8
3 3 2 3 3 3 3 3 2 3 4 4 4 4 4 4 5 5 4 4 4 5 8 12 12 11 10 10 9 9 10 10 10 9 9 9 8 8 8 8 8 8 8
2 3 3 2 3 2 2 2 2 2 3 3 3 3 3 3 4 4 5 5 5 4 5 8 10 11 10 10 9 9 9 9 9 9 9 9 9 8 8 7 7 7 8
2 3 2 3 3 2 2 2 3 2 2 2 3 3 3 3 3 4 4 4 4 5 5 5 4 7 10 9 9 8 8 8 8 8 8 8 8 8 8 7 7 7 7
2 2 2 2 2 2 2 2 2 3 2 2 1 2 2 3 4 3 3 3 4 5 4 4 4 3 4 8 8 8 7 7 7 7 7 7 7 7 7 7 6 7 7
2 2 2 2 2 2 2 2 2 1 1 1 1 1 1 2 2 3 2 2 3 3 4 4 4 4 4 3 8 9 8 7 6 6 6 6 6 6 6 6 6 6 6
2 1 2 2 2 2 2 2 2 1 1 0 1 2 2 1 1 2 3 2 3 2 2 3 4 5 4 4 4 7 8 7 7 6 6 5 5 5 5 5 5 5 5
3 2 2 2 2 1 2 2 1 1 1 1 0 2 3 1 1 1 1 2 2 2 2 2 3 4 4 4 5 8 8 8 7 6 6 6 4 4 4 3 3 4 4
2 2 2 2 2 1 1 1 1 1 1 1 1 0 1 1 3 1 0 1 1 1 2 2 2 3 3 4 3 7 8 7 7 6 6 6 5 5 4 3 2 2 3
2 2 2 2 2 2 2 1 1 1 1 1 1 1 1 1 1 1 1 1 0 1 1 1 1 2 2 3 5 7 6 6 6 6 6 6 5 5 4 4 2 1 2
2 2 2 2 2 2 2 1 1 1 1 1 1 1 1 1 1 2 2 1 1 1 1 1 1 1 1 2 3 3 4 5 5 6 6 6 6 6 5 3 3 2 3
1 2 2 2 2 2 2 2 1 1 1 1 1 1 1 1 1 1 1 2 2 1 2 1 2 1 1 1 3 2 3 4 5 5 5 5 5 6 6 4 3 3 3
2 3 3 2 2 2 2 2 2 2 1 1 1 1 1 0 1 1 1 2 3 3 1 1 1 1 0 1 1 1 1 4 3 3 4 4 4 5 5 5 4 3 3
3 3 3 3 3 3 3 2 2 1 1 1 0 1 1 1 0 1 1 2 3 3 2 0 1 1 0 1 0 2 1 2 1 2 2 3 3 4 4 3 4 3 3
3 4 4 3 3 3 3 3 2 2 2 2 2 2 2 1 1 1 1 1 2 2 2 1 1 1 2 2 1 2 2 2 1 1 1 2 2 3 3 3 3 3 2
3 3 4 4 3 3 3 3 3 3 2 2 2 2 2 2 2 1 1 2 1 2 2 2 1 2 2 2 2 2 2 2 2 2 1 2 2 3 3 2 3 3 2
3 3 3 3 3 3 3 3 3 3 3 2 2 3 2 3 3 2 3 2 2 2 2 3 2 1 2 2 3 3 3 2 3 2 3 4 3 4 3 3 3 3 3
4 4 3 3 3 3 3 3 3 3 3 2 3 3 3 3 3 3 3 3 2 2 3 3 2 2 2 2 3 3 3 2 3 3 2 3 4 5 5 4 3 3 3
4 4 4 4 4 3 3 3 4 4 4 3 3 3 2 1 2 2 2 2 3 3 3 3 3 3 3 3 3 3 3 3 3 3 3 3 3 3 4 5 4 3 3
4 4 4 4 4 3 2 2 4 4 4 4 4 4 3 5 4 4 4 4 4 4 3 3 3 4 4 4 3 3 4 4 3 2 4 3 3 3 3 2 0 1 2
5 5 5 5 5 4 4 5 6 5 5 5 5 4 3 3 5 5 6 7 6 6 6 6 6 5 5 4 4 5 5 5 5 2 3 4 3 4 3 1 1 1 2
5 5 5 6 5 5 6 6 6 8 6 6 6 5 5 5 5 5 5 6 6 5 6 6 6 5 5 4 4 5 5 5 5 3 4 5 4 4 3 2 2 3 3
5 6 6 6 7 6 7 8 7 7 6 7 7 7 7 7 3 4 6 6 6 4 4 4 5 5 4 4 4 4 4 5 5 3 3 4 3 4 4 3 2 4 4
6 5 6 6 7 7 6 8 9 6 7 6 6 6 6 6 4 6 7 6 6 5 4 5 6 6 6 5 6 7 5 5 5 4 2 3 3 3 3 2 2 2 3
Wind_Direction
95 92 93 89 84 83 88 75 66 62 58 57 53 51 52 51 52 54 61 54 45 49 55 60 64 66 65 72 78 79 78 79 79 78 76 74 73 73 72 70 68 66 68
104 98 91 85 80 79 76 79 75 67 60 58 54 54 48 51 51 54 55 67 59 48 49 55 61 65 65 67 75 77 77 77 76 76 74 70 71 72 70 67 64 63 64
120 109 90 90 86 84 84 76 76 70 69 67 60 55 52 44 45 54 57 51 68 66 51 49 54 59 63 67 72 74 76 78 76 74 72 70 70 68 65 67 66 64 62
116 106 102 95 96 93 90 88 78 76 75 66 58 54 56 55 44 46 55 61 53 55 65 55 50 53 59 64 69 74 76 78 76 73 70 68 67 67 63 65 66 64 61
111 109 96 94 96 97 94 98 86 77 79 73 71 61 53 53 50 47 51 51 58 55 61 73 62 52 52 54 60 67 72 77 77 74 71 68 66 64 61 59 60 59 58
107 102 111 107 100 109 107 106 104 93 83 79 70 60 53 59 59 48 44 46 46 50 47 51 65 71 61 50 49 56 64 69 73 75 75 72 68 64 60 58 57 57 55
127 109 121 108 115 114 111 113 104 112 120 119 111 97 90 69 57 60 45 45 55 50 50 56 50 48 76 71 51 50 56 62 67 73 73 70 68 66 62 59 57 58 57
135 142 148 134 135 130 135 116 112 102 105 226 287 265 174 133 80 62 65 50 47 57 42 41 48 51 44 56 64 52 46 56 65 67 70 70 69 65 62 59 55 54 53
130 143 137 142 145 153 142 155 157 172 191 216 315 305 301 28 91 96 60 60 54 44 43 39 39 44 48 50 58 63 49 47 55 57 60 61 61 60 60 61 57 51 49
133 146 153 155 152 160 161 182 178 219 244 242 98 319 324 2 266 151 127 68 54 45 39 44 35 42 46 53 62 53 50 43 46 49 50 50 46 46 50 55 55 54 51
138 152 162 159 162 172 168 144 168 252 259 304 324 320 346 290 275 279 190 139 107 76 54 47 45 42 47 48 52 59 53 44 41 40 41 41 37 36 32 32 39 47 50
148 140 158 164 166 161 162 169 183 233 291 310 286 272 259 261 284 296 261 224 90 72 77 65 54 53 51 57 56 54 53 44 39 37 36 31 27 23 16 16 21 33 44
161 153 165 173 162 164 167 172 169 209 229 248 278 310 303 302 289 287 277 293 292 238 169 168 93 75 68 73 74 47 69 46 38 35 33 29 24 16 9 8 11 42 42
156 152 166 173 171 180 183 170 201 195 222 215 226 266 262 288 291 285 292 285 267 242 219 160 125 91 55 74 53 293 93 65 38 33 32 28 25 18 17 23 36 39 26
163 164 173 179 172 180 188 179 199 192 210 228 221 218 237 198 226 258 269 272 283 274 245 164 149 107 131 61 47 291 58 78 43 31 29 25 23 22 24 29 31 33 28
172 178 186 184 176 179 190 188 189 187 184 148 243 249 218 219 190 229 258 277 287 289 289 159 204 165 160 231 77 298 5 124 129 30 20 16 11 9 11 16 21 24 19
187 187 188 189 180 180 183 177 190 181 200 177 183 200 201 211 214 209 229 253 269 273 267 252 220 208 227 250 199 264 268 264 182 140 339 344 347 348 351 355 354 354 344
188 195 186 188 187 186 182 186 190 198 213 208 196 199 199 188 215 232 229 236 246 259 256 262 235 234 249 257 264 262 266 273 278 147 233 282 301 313 317 322 332 330 322
193 194 190 195 188 191 194 204 205 208 214 219 220 222 223 214 214 209 225 233 236 240 246 245 249 251 257 253 258 259 260 268 270 216 214 234 257 279 284 284 290 304 310
201 201 199 202 199 200 207 213 217 217 216 219 223 232 238 238 233 226 224 231 234 233 234 244 247 239 244 249 255 256 261 250 263 262 257 252 239 243 245 253 261 273 291
212 209 211 210 211 215 219 225 220 225 221 221 223 224 226 260 316 282 266 246 234 235 234 245 249 250 246 239 249 255 265 270 265 260 270 258 245 250 235 227 235 259 276
214 215 220 221 218 220 172 241 256 232 230 227 228 228 206 202 200 216 237 257 270 256 251 248 254 254 261 256 263 265 267 266 270 248 271 273 266 266 268 272 73 238 254
210 216 222 224 225 207 180 209 241 250 240 239 237 235 234 222 217 220 207 213 226 237 253 266 267 269 272 270 262 259 261 272 280 286 271 272 267 267 266 266 120 243 250
212 219 225 227 232 216 194 212 226 244 243 238 239 239 237 234 222 237 236 234 236 226 230 243 262 273 281 282 269 270 274 272 276 267 255 270 275 279 284 268 182 225 254
222 224 227 232 231 222 204 212 221 239 240 238 236 237 241 242 194 232 245 243 243 235 206 232 279 292 305 288 274 257 251 253 262 259 245 264 281 289 277 262 204 191 223
228 230 232 236 237 239 206 208 221 235 238 239 237 232 229 246 210 215 242 246 249 248 237 221 228 228 238 226 227 243 249 257 266 264 232 254 273 286 280 258 262 239 227